Location: Unspecified
(0.0000°N, 0.0000°E)
Time: 07:31:37
(UTC+00:00)

Tiros 1 despin weight - Pass Details

Date: 09 October 2023
Orbit: 583 x 627 km, 48.2° (Epoch: 05 December)

Event Time Altitude Azimuth Distance (km) Brightness Sun altitude
Rises 13:09:25 0° 228° (SW) 2,903 ? 68.6°
Reaches altitude 10° 13:11:47 10° 232° (SW) 1,998 ? 68.0°
Maximum altitude 13:16:16 52° 309° (NW) 776 ? 66.9°
Drops below altitude 10° 13:20:44 10° 26° (NNE) 1,992 ? 65.9°
Sets 13:23:06 0° 31° (NNE) 2,894 ? 65.3°
